Weather observations for the past three days for
Mammoth Yosemite Airport
Imperial (Metric)
Date Time (pdt) Wind (mph) Vis. (mi.) Weather Sky Cond. Temperature (ºF) Relative Humidity Wind Chill (°F) Heat Index (°F) Pressure Precipitation (in)
Air Dwpt 6 hour altimeter (in) sea level (mb) 1 hr 3 hr 6 hr
Max. Min.
13 06:35 N 3 10.00 Fair CLR 59 34.9 41% 30.38 0.0
13 06:15 N 3 10.00 Fair CLR 59.7 33.4 37% 30.37 0.0
13 05:55 Calm 10.00 Fair CLR 60.8 33.1 35% 30.37 0.0
13 05:35 NW 3 10.00 Fair CLR 59.5 32.5 36% 30.37 0.0
13 05:15 N 3 10.00 Fair CLR 59.4 32.5 36% 30.37 0.0
13 04:55 NW 3 10.00 Fair CLR 58.1 33.3 73.4 57.4 39% 30.36 0.0
13 04:35 Calm 10.00 Fair CLR 59.2 32.7 37% 30.37 0.0
13 04:15 Calm 10.00 Fair CLR 60.1 32.7 36% 30.36 0.0
13 03:55 W 7 10.00 Fair CLR 61.5 32.9 34% 30.36 0.0
13 03:35 Calm 10.00 Fair CLR 60.6 33.1 36% 30.35 0.0
13 03:15 W 9 10.00 Fair CLR 59.9 34.7 39% 30.35 0.0
13 02:55 N 5 10.00 Fair CLR 59.2 36 42% 30.36 0.0
13 02:35 Calm 10.00 Fair CLR 63.1 36.1 37% 30.36 0.0
13 02:15 Calm 10.00 Fair CLR 65.7 36.5 34% 30.38 0.0
13 01:55 Calm 10.00 Fair CLR 68.7 35.1 29% 30.37 0.0
13 01:35 SW 8 10.00 Partly Cloudy SCT090 SCT120 64.9 37.4 36% 30.37 0.0
13 01:15 Calm 10.00 Partly Cloudy SCT095 SCT120 66.7 35.1 31% 30.37 0.0
13 00:55 NW 5 10.00 Fair CLR 67.5 35.4 31% 30.37 0.0
13 00:35 Calm 10.00 Fair CLR 68 37.4 33% 30.37 0.0
13 00:15 Calm 10.00 Fair CLR 67.1 37.6 34% 30.37 0.0
12 23:55 W 10 10.00 Fair CLR 70 38.1 31% 30.38 0.0
12 23:35 Calm 10.00 Fair CLR 69.3 39 33% 30.38 0.0
12 23:15 SW 9 10.00 Partly Cloudy SCT120 73 36 26% 30.38 0.0
12 22:55 SW 7 10.00 Partly Cloudy SCT120 70 37.4 84.6 67.5 30% 30.39 0.0
12 22:35 S 5 10.00 Fair CLR 68.9 35.1 29% 30.39 0.0
12 22:15 Calm 10.00 Fair CLR 70 35.8 29% 30.38 0.0
12 21:55 NE 3 10.00 Fair CLR 67.5 36.3 32% 30.37 0.0
12 21:35 Calm 10.00 Fair CLR 70.9 35.8 28% 30.36 0.0
12 21:15 Calm 10.00 Fair CLR 70.5 33.6 26% 30.35 0.0
12 20:55 Calm 10.00 Fair CLR 70.2 30.4 23% 30.34 0.0
12 20:35 N 3 10.00 Fair CLR 70.2 30.2 23% 30.34 0.0
12 20:15 Calm 10.00 Fair CLR 70.9 32 24% 30.33 0.0
12 19:55 Calm 10.00 Fair CLR 74.7 33.6 22% 30.33 0.0
12 19:35 Calm 10.00 Fair CLR 79.5 29.5 16% 78 30.33 0.0
12 19:15 W 8 10.00 Fair CLR 80.1 30 16% 78 30.32 0.0
12 18:55 W 5 10.00 Fair CLR 81.5 29.5 15% 79 30.32 0.0
12 18:35 W 8 10.00 Fair CLR 82.6 28.9 14% 80 30.32 0.0
12 18:15 W 9 10.00 Fair CLR 82.6 28 14% 80 30.32 0.0
12 17:55 SW 10 G 17 10.00 Fair CLR 82.4 27.5 13% 80 30.32 0.0
12 17:35 SW 12 G 21 10.00 Fair CLR 83.7 27 13% 81 30.33 0.0
12 17:15 W 13 10.00 Partly Cloudy SCT110 83.8 27.7 13% 81 30.33 0.0
12 16:55 W 9 10.00 Partly Cloudy SCT110 83.8 27.5 89.8 79.9 13% 81 30.34 0.0
12 16:35 SW 7 10.00 Fair CLR 84.2 26.1 12% 81 30.33 0.0
12 16:15 SW 12 G 20 10.00 Partly Cloudy SCT120 84.7 27 12% 82 30.33 0.0
12 15:55 S 13 5.00 Partly Cloudy with Haze SCT120 81.1 28 14% 79 30.33 0.0
12 15:35 SW 20 G 29 10.00 Fair CLR 80.1 28.6 15% 78 30.35 0.0
12 15:15 SW 20 G 33 10.00 Fair CLR 80.4 29.1 15% 79 30.35 0.0
12 14:55 SW 17 G 26 10.00 Partly Cloudy SCT120 83.3 25 12% 81 30.35 0.0
12 14:35 S 18 G 25 10.00 Partly Cloudy SCT120 82.8 25.9 12% 80 30.35 0.0
12 14:15 SW 22 G 30 10.00 Fair and Breezy CLR 83.8 25.2 12% 81 30.35 0.0
12 13:55 SW 10 10.00 Fair CLR 85.5 25 11% 82 30.34 0.0
12 13:35 W 12 10.00 Fair CLR 88.3 24.4 10% 85 30.34 0.0
12 13:15 W 5 10.00 Partly Cloudy SCT120 88.3 23.2 9% 85 30.34 0.0
12 12:55 SW 6 10.00 Partly Cloudy SCT120 86.4 22.8 10% 83 30.34 0.0
12 12:35 SE 6 10.00 Fair CLR 86 25.2 11% 83 30.35 0.0
12 12:15 SE 6 10.00 Fair CLR 85.1 24.3 11% 82 30.35 0.0
12 11:55 E 3 10.00 Fair CLR 84.2 24.8 11% 81 30.36 0.0
12 11:35 SE 6 10.00 Fair CLR 87.4 24.1 10% 84 30.37 0.0
12 11:15 E 5 10.00 Fair CLR 85.8 25 11% 83 30.37 0.0
12 10:55 E 6 10.00 Fair CLR 87.4 30.2 87.4 55.8 13% 84 30.37 0.0
12 10:35 E 6 10.00 Fair CLR 84.9 28.6 13% 82 30.38 0.0
12 10:15 E 3 10.00 Fair CLR 83.7 27.5 13% 81 30.38 0.0
12 09:55 Calm 10.00 Fair CLR 82.8 28.8 14% 80 30.38 0.0
12 09:35 Calm 10.00 Fair CLR 81 31.5 17% 79 30.39 0.0
12 08:55 Calm 10.00 Fair CLR 76.8 37.9 25% 77 30.4 0.0
12 08:35 NW 3 10.00 Fair CLR 75.2 37.9 26% 77 30.4 0.0
12 08:15 N 3 10.00 Fair CLR 72.7 35.2 25% 30.4 0.0
12 07:55 NW 3 7.00 Fair CLR 70.3 32.7 25% 30.4 0.0
12 07:35 Calm 10.00 Fair CLR 65.5 34.7 32% 30.4 0.0
12 07:15 N 6 10.00 Fair CLR 62.2 34.3 35% 30.4 0.0
12 06:55 W 3 10.00 Fair CLR 63.9 33.4 32% 30.39 0.0
12 06:35 SE 3 10.00 Fair CLR 57.4 33.3 40% 30.38 0.0
12 06:15 Calm 10.00 Fair CLR 55.8 31.1 39% 30.38 0.0
12 05:55 SE 7 10.00 Fair CLR 61.5 29.7 30% 30.38 0.0
12 05:35 SW 9 10.00 Fair CLR 59.4 29.7 32% 30.37 0.0
12 05:15 N 8 10.00 Fair CLR 60.8 30.2 31% 30.38 0.0
12 04:55 W 10 10.00 Fair CLR 58.8 31.8 76.5 55 36% 30.37 0.0
12 04:35 W 6 10.00 Fair CLR 58.1 36 44% 30.37 0.0
12 04:15 W 7 10.00 Fair CLR 61 34.2 37% 30.37 0.0
12 03:55 S 5 10.00 Fair CLR 61 38.3 43% 30.38 0.0
12 03:35 SE 5 10.00 Fair CLR 62.6 34.5 35% 30.37 0.0
12 03:15 SE 7 10.00 Partly Cloudy SCT090 65.8 35.1 32% 30.37 0.0
12 02:55 NW 3 10.00 Partly Cloudy SCT070 SCT090 SCT120 72.3 25.7 17% 30.35 0.0
12 02:35 NW 6 10.00 Fair CLR 61.3 31.8 33% 30.37 0.0
12 02:15 NW 6 10.00 Partly Cloudy SCT120 61.2 32 33% 30.37 0.0
12 01:55 Calm 10.00 Partly Cloudy SCT120 57.2 32.4 39% 30.38 0.0
12 01:35 NW 3 10.00 Fair CLR 55.8 31.8 40% 30.38 0.0
12 01:15 Calm 10.00 Fair CLR 58.3 32 37% 30.37 0.0
12 00:55 Calm 10.00 Fair CLR 59.4 30.9 34% 30.38 0.0
12 00:35 Calm 10.00 Fair CLR 59.2 31.8 36% 30.38 0.0
12 00:15 NW 3 10.00 Fair CLR 63 31.5 31% 30.38 0.0
11 23:55 Calm 10.00 Fair CLR 65.1 32 29% 30.38 0.0
11 23:35 Calm 10.00 Fair CLR 67.8 31.6 26% 30.38 0.0
11 23:15 Calm 10.00 Fair CLR 68 31.6 26% 30.38 0.0
11 22:55 Calm 10.00 Fair CLR 68.2 31.5 89.6 66.6 26% 30.38 0.0
11 22:35 W 3 10.00 Fair CLR 70.9 31.6 23% 30.37 0.0
11 22:15 NW 6 10.00 Fair CLR 73.2 31.8 22% 30.37 0.0
11 21:55 SW 7 10.00 Fair CLR 75.4 30 19% 76 30.37 0.0
11 21:35 W 7 10.00 Fair CLR 77.2 29.8 18% 77 30.37 0.0
11 21:15 W 8 10.00 Fair CLR 78.1 28.6 16% 77 30.36 0.0
11 20:55 W 6 10.00 Fair CLR 77.5 27.5 16% 77 30.35 0.0
11 20:35 SW 9 G 16 10.00 Fair CLR 79.9 28.2 15% 78 30.35 0.0
11 20:15 SW 12 G 17 10.00 Fair CLR 80.8 27.5 14% 79 30.35 0.0
11 19:55 SW 10 G 17 10.00 Fair CLR 81.9 25.9 13% 80 30.35 0.0
11 19:35 W 9 G 13 10.00 Fair CLR 83.3 26.1 12% 81 30.35 0.0
11 19:15 W 14 10.00 Fair CLR 84 26.2 12% 81 30.34 0.0
11 18:55 SW 9 G 17 10.00 Fair CLR 85.6 25.9 11% 82 30.34 0.0
11 18:35 W 10 G 17 10.00 Fair CLR 86.4 26.6 11% 83 30.34 0.0
11 18:15 W 18 G 22 10.00 Fair CLR 87.4 25 10% 84 30.34 0.0
11 17:55 W 16 G 20 10.00 Fair CLR 88 24.3 10% 84 30.34 0.0
11 17:35 W 14 G 17 10.00 Fair CLR 87.8 24.1 10% 84 30.34 0.0
11 17:15 SW 16 G 24 10.00 Fair CLR 88.7 24.8 10% 85 30.34 0.0
11 16:35 NW 9 10.00 Partly Cloudy SCT110 87.4 23.4 10% 84 30.35 0.0
11 16:15 W 15 G 28 10.00 Partly Cloudy SCT120 89.1 23.9 9% 85 30.36 0.0
11 15:55 W 21 G 32 10.00 Fair and Breezy CLR 90.3 23.2 9% 86 30.36 0.0
11 15:35 W 16 G 26 10.00 Fair CLR 89.8 22.1 8% 86 30.36 0.0
11 15:15 W 17 G 23 10.00 Fair CLR 89.6 21 8% 86 30.36 0.0
11 14:55 W 24 G 30 10.00 Fair and Breezy CLR 91.8 21 7% 87 30.36 0.0
11 14:35 W 16 G 26 10.00 Partly Cloudy SCT060 88 19 8% 84 30.37 0.0
11 14:15 W 17 G 25 10.00 Fair CLR 89.8 19.4 7% 86 30.37 0.0
11 13:55 W 12 G 23 10.00 Fair CLR 87.1 18 8% 84 30.37 0.0
11 13:35 NW 16 G 26 10.00 Fair CLR 89.6 18.9 7% 86 30.38 0.0
11 13:15 NW 12 10.00 Fair CLR 90.9 20.8 8% 87 30.38 0.0
11 12:55 NW 17 G 25 10.00 Fair CLR 90 19.6 7% 86 30.39 0.0
11 12:35 NW 15 G 22 10.00 Fair CLR 87.4 19.6 8% 84 30.39 0.0
11 12:15 W 10 10.00 Fair CLR 87.8 18.3 8% 84 30.4 0.0
11 11:55 S 6 G 16 10.00 Fair CLR 88.2 17.8 7% 84 30.39 0.0
11 11:35 NE 13 10.00 Fair CLR 88.9 19.8 8% 85 30.39 0.0
11 11:15 E 8 10.00 Fair CLR 88.7 22.6 9% 85 30.39 0.0
11 10:55 S 3 10.00 Fair CLR 86.7 22.3 86.9 45 9% 83 30.4 0.0
11 10:35 E 6 10.00 Fair CLR 86 25.5 11% 83 30.4 0.0
11 10:15 SE 3 10.00 Fair CLR 84.2 30.2 14% 81 30.4 0.0
11 09:55 SE 5 10.00 Fair CLR 82.2 31.6 16% 80 30.4 0.0
11 09:35 Calm 10.00 Fair CLR 80.2 22.3 12% 78 30.4 0.0
11 09:15 Calm 10.00 Fair CLR 77.4 23.7 14% 77 30.4 0.0
11 08:55 Calm 10.00 Fair CLR 74.7 24.1 15% 30.41 0.0
11 08:35 Calm 10.00 Fair CLR 72.5 22.1 15% 30.41 0.0
11 08:15 Calm 10.00 Fair CLR 69.1 26.4 20% 30.42 0.0
11 07:55 Calm 10.00 Fair CLR 66.7 27.3 23% 30.41 0.0
11 07:35 Calm 10.00 Fair CLR 62.2 26.1 25% 30.41 0.0
11 07:15 Calm 10.00 Fair CLR 58.3 24.1 27% 30.41 0.0
11 06:55 N 3 10.00 Fair CLR 55.6 23 28% 30.4 0.0
11 06:35 NW 3 10.00 Fair CLR 53.6 21 28% 30.4 0.0
11 06:15 N 5 10.00 Fair CLR 50.5 18.9 29% 30.4 0.0
11 05:55 N 3 10.00 Fair CLR 48.7 18.3 30% 30.39 0.0
11 05:35 N 3 10.00 Fair CLR 47.3 18.5 32% 30.38 0.0
11 05:15 N 3 10.00 Fair CLR 46.6 17.8 32% 30.38 0.0
11 04:55 N 3 10.00 Fair CLR 47.5 17.6 77.5 47.5 30% 30.38 0.0
11 04:35 NW 5 10.00 Fair CLR 51.8 17.6 26% 30.38 0.0
11 04:15 Calm 10.00 Fair CLR 52.5 16.9 24% 30.38 0.0
11 03:55 Calm 10.00 Fair CLR 54.1 17.1 23% 30.38 0.0
11 03:35 N 5 10.00 Fair CLR 51.6 17.2 26% 30.37 0.0
11 03:15 Calm 10.00 Fair CLR 55 17.8 23% 30.37 0.0
11 02:55 N 3 10.00 Fair CLR 55 18.3 24% 30.37 0.0
11 02:35 N 5 10.00 Fair CLR 54.3 17.8 24% 30.37 0.0
11 02:15 Calm 10.00 Fair CLR 56.1 16.5 21% 30.38 0.0
11 01:55 N 5 10.00 Fair CLR 56.8 16.9 21% 30.38 0.0
11 01:35 Calm 10.00 Fair CLR 57.7 16.7 20% 30.38 0.0
11 01:15 NW 5 10.00 Fair CLR 61.2 16 17% 30.38 0.0
11 00:55 SE 3 10.00 Fair CLR 67.8 16.7 14% 30.38 0.0
11 00:35 E 7 10.00 Fair CLR 66.2 18.5 16% 30.38 0.0
11 00:15 SW 5 10.00 Fair CLR 67.6 15.8 13% 30.38 0.0
10 23:35 NE 5 10.00 Fair CLR 69.8 15.4 12% 30.38 0.0
10 23:15 N 3 10.00 Fair CLR 72.1 16.2 12% 30.38 0.0
10 22:35 Calm 10.00 Fair CLR 72.9 16.3 11% 30.37 0.0
10 22:15 Calm 10.00 Fair CLR 77.2 13.8 9% 76 30.37 0.0
10 21:55 NE 3 G 17 10.00 Fair CLR 79 13.5 8% 77 30.37 0.0
10 21:35 SW 12 G 18 10.00 Fair CLR 79 14 8% 77 30.36 0.0
10 21:15 SW 15 G 25 10.00 Fair CLR 79.9 14.9 8% 78 30.35 0.0
10 20:55 SW 22 G 28 10.00 Fair and Breezy CLR 79.9 14.9 8% 78 30.34 0.0
10 20:35 SW 15 G 21 10.00 Fair CLR 80.8 15.1 8% 79 30.34 0.0
10 20:15 SW 14 G 25 10.00 Fair CLR 81.5 14.7 8% 79 30.33 0.0
10 19:55 W 21 G 30 10.00 Fair and Breezy CLR 82.8 15.8 8% 80 30.33 0.0
10 19:35 SW 17 G 25 10.00 Fair CLR 83.7 15.8 8% 81 30.33 0.0
10 19:15 W 22 G 31 10.00 Fair and Breezy CLR 84.7 15.3 7% 82 30.33 0.0
10 18:55 W 15 G 26 10.00 Fair CLR 85.8 15.6 7% 83 30.33 0.0
10 18:35 W 22 G 35 10.00 Fair and Breezy CLR 86.5 15.3 7% 83 30.33 0.0
10 18:15 W 18 G 32 10.00 Fair CLR 87.6 15.8 7% 84 30.33 0.0
10 17:55 SW 16 G 25 10.00 Fair CLR 88.3 15.3 6% 85 30.32 0.0
10 17:35 SW 9 G 24 10.00 Fair CLR 88.5 15.1 6% 85 30.33 0.0
10 17:15 SW 15 G 25 10.00 Fair CLR 89.2 15.1 6% 85 30.33 0.0
10 16:55 SW 13 G 25 10.00 Fair CLR 90.3 15.3 91.6 85.6 6% 86 30.34 0.0
10 16:35 W 13 G 23 10.00 Fair CLR 90.1 15.4 6% 86 30.34 0.0
10 16:15 SW 16 G 31 10.00 Fair CLR 89.8 12.9 6% 86 30.34 0.0
10 15:55 SW 14 G 29 10.00 Fair CLR 90.7 14.2 6% 87 30.34 0.0
10 15:35 SW 17 G 28 10.00 Fair CLR 90.1 13.5 6% 86 30.34 0.0
10 15:15 SW 12 G 30 10.00 Fair CLR 90.5 14.4 6% 86 30.35 0.0
10 14:55 SW 15 G 25 10.00 Fair CLR 90.7 14.7 6% 87 30.36 0.0
10 14:35 SW 16 G 28 10.00 Fair CLR 90.3 13.3 6% 86 30.35 0.0
10 14:15 SW 18 G 30 10.00 Fair CLR 90.5 14.4 6% 86 30.36 0.0
10 13:55 S 18 G 37 10.00 Fair CLR 90 13.5 6% 86 30.36 0.0
10 13:35 SW 16 G 40 10.00 Fair CLR 90 13.8 6% 86 30.36 0.0
10 13:15 SW 20 G 36 10.00 Fair CLR 90.3 12.9 5% 86 30.36 0.0
10 12:55 SW 15 G 26 10.00 Fair CLR 89.8 12 5% 86 30.35 0.0
10 12:35 SW 12 G 22 10.00 Fair CLR 89.4 12 5% 86 30.36 0.0
10 12:15 S 7 10.00 Fair CLR 89.6 19.9 8% 86 30.35 0.0
10 11:55 SW 6 10.00 Fair CLR 87.8 20.1 8% 84 30.35 0.0
10 11:35 E 8 10.00 Fair CLR 87.8 23.9 10% 84 30.35 0.0
10 11:15 E 7 10.00 Fair CLR 86.4 24.6 10% 83 30.35 0.0
10 10:55 SE 9 10.00 Fair CLR 85.5 26.2 85.5 45.3 11% 82 30.36 0.0
10 10:35 E 7 10.00 Fair CLR 84.4 25.9 12% 81 30.36 0.0
10 10:15 E 5 10.00 Fair CLR 82.8 26.2 13% 80 30.36 0.0
10 09:55 Calm 10.00 Fair CLR 81.1 27.3 14% 79 30.36 0.0
10 09:35 Calm 10.00 Fair CLR 78.6 30.9 17% 78 30.36 0.0
10 09:15 SE 3 10.00 Fair CLR 76.5 31.8 20% 77 30.36 0.0
10 08:55 Calm 10.00 Fair CLR 75.2 28.4 18% 76 30.37 0.0
10 08:35 Calm 10.00 Fair CLR 72 29.8 21% 30.37 0.0
10 08:15 Calm 10.00 Fair CLR 66.9 34 30% 30.37 0.0
10 07:55 Calm 10.00 Fair CLR 63 34.9 35% 30.37 0.0
10 07:35 SE 3 10.00 Fair CLR 61.7 34.3 36% 30.36 0.0
10 07:15 Calm 10.00 Fair CLR 59.2 29.7 33% 30.35 0.0
10 06:55 Calm 10.00 Fair CLR 56.1 29.1 36% 30.35 0.0
Date Time (pdt) Wind (mph) Vis. (mi.) Weather Sky Cond. Air Dwpt Max. Min. Relative Humidity Wind Chill (°F) Heat Index (°F) altimeter (in) sea level (mb) 1 hr 3 hr 6 hr
6 hour
Temperature (ºF) Pressure Precipitation (in)